Weather History for PAII - February, 2013

Change the Weather History Date:

Saturday, February 2, 2013

  Actual Average (PAKN) Record (PAKN)
Temperature  
Mean Temperature 36 °F 17 °F  
Max Temperature 37 °F 24 °F 50 °F (1982)
Min Temperature 35 °F - -43 °F (2006)
Degree Days  
Heating Degree Days 29 48  
Month to date heating degree days 96  
Since 1 July heating degree days 6422  
Cooling Degree Days 0    
Month to date cooling degree days  
Year to date cooling degree days  
Moisture  
Dew Point 33 °F    
Average Humidity 86    
Maximum Humidity 93    
Minimum Humidity 75    
Precipitation  
Precipitation 0.00 in 0.03 in 0.79 in (1955)
Month to date precipitation 0.06  
Year to date precipitation 1.08  
Snow  
Snow 0.00 in 0.30 in 8.00 in (1933)
Month to date snowfall 0.5  
Since 1 July snowfall 30.0  
Snow Depth -    
Sea Level Pressure  
Sea Level Pressure 29.22 in    
Wind  
Wind Speed 14 mph (East)    
Max Wind Speed 20 mph    
Max Gust Speed 26 mph    
Visibility 10 miles    
Events      
T = Trace of Precipitation, MM = Missing Value Source: NWS Daily Summary

Daily Weather History Graph

Daily Weather History Graph

Search for Another Location

Airport or City:

Trip Planner

Search our weather history database for the weather conditions in past years. The results will help you decide how hot, cold, wet, or windy it might be!

Date:

Astronomy

Feb. 02, 2013 Rise Set
Actual Time 9:30 AM AKST 5:56 PM AKST
Civil Twilight 8:46 AM AKST 6:40 PM AKST
Nautical Twilight 7:59 AM AKST 7:28 PM AKST
Astronomical Twilight 7:13 AM AKST 8:14 PM AKST
Moon 1:54 AM AKST (2/2) 11:04 AM AKST (2/2)
Length of Visible Light 9h 53m
Length of Day
8h 26m
Waning Gibbous, 58% of the Moon is Illuminated
Feb 2
Waning Gibbous
Feb 3
Last Quarter
Feb 9
New
Feb 17
First Quarter
Feb 25
Full

Hourly Weather History & Observations

Time (AKST) Temp. Windchill Dew Point Humidity Pressure Visibility Wind Dir Wind Speed Gust Speed Precip Events Conditions
12:16 AM 37.4 °F 27.8 °F 33.8 °F 87% 29.39 in 10.0 mi ESE 17.3 mph - N/A   Mostly Cloudy
12:36 AM 37.4 °F 28.5 °F 33.8 °F 87% 29.39 in 10.0 mi ESE 15.0 mph 23.0 mph N/A   Overcast
12:56 AM 37.4 °F 27.5 °F 33.8 °F 87% 29.38 in 10.0 mi ESE 18.4 mph 24.2 mph N/A   Mostly Cloudy
1:16 AM 37.4 °F 27.8 °F 33.8 °F 87% 29.38 in 10.0 mi ESE 17.3 mph 26.5 mph N/A   Mostly Cloudy
1:36 AM 37.4 °F 27.2 °F 33.8 °F 87% 29.37 in 10.0 mi ESE 19.6 mph 24.2 mph N/A   Mostly Cloudy
1:56 AM 37.4 °F 28.2 °F 33.8 °F 87% 29.38 in 10.0 mi ESE 16.1 mph - N/A   Mostly Cloudy
2:16 AM 37.4 °F 27.5 °F 33.8 °F 87% 29.38 in 10.0 mi ESE 18.4 mph 23.0 mph N/A   Overcast
2:36 AM 37.4 °F 27.5 °F 33.8 °F 87% 29.37 in 10.0 mi ESE 18.4 mph 23.0 mph N/A   Overcast
2:56 AM 37.4 °F 27.2 °F 33.8 °F 87% 29.36 in 10.0 mi ESE 19.6 mph - N/A   Overcast
3:16 AM 37.4 °F 28.2 °F 33.8 °F 87% 29.36 in 10.0 mi ESE 16.1 mph - N/A   Overcast
3:36 AM 37.4 °F 27.5 °F 33.8 °F 87% 29.36 in 10.0 mi ESE 18.4 mph 25.3 mph N/A   Overcast
3:56 AM 37.4 °F 28.2 °F 33.8 °F 87% 29.36 in 10.0 mi ESE 16.1 mph 20.7 mph N/A   Overcast
4:16 AM 37.4 °F 27.8 °F 33.8 °F 87% 29.35 in 10.0 mi ESE 17.3 mph 24.2 mph N/A   Overcast
4:36 AM 37.4 °F 27.5 °F 33.8 °F 87% 29.35 in 10.0 mi ESE 18.4 mph - N/A   Overcast
4:56 AM 37.4 °F 27.8 °F 33.8 °F 87% 29.34 in 10.0 mi ESE 17.3 mph - N/A   Overcast
5:16 AM 37.4 °F 28.2 °F 33.8 °F 87% 29.33 in 10.0 mi ESE 16.1 mph 24.2 mph N/A   Overcast
5:36 AM 37.4 °F 27.8 °F 33.8 °F 87% 29.32 in 10.0 mi ESE 17.3 mph 23.0 mph N/A   Overcast
5:56 AM 35.6 °F 26.6 °F 33.8 °F 93% 29.32 in 10.0 mi East 13.8 mph - N/A   Mostly Cloudy
6:16 AM 35.6 °F 25.9 °F 33.8 °F 93% 29.31 in 10.0 mi ESE 16.1 mph - N/A   Partly Cloudy
6:36 AM 35.6 °F 25.9 °F 33.8 °F 93% 29.30 in 10.0 mi ESE 16.1 mph 24.2 mph N/A   Clear
6:56 AM 35.6 °F 25.2 °F 33.8 °F 93% 29.30 in 10.0 mi ESE 18.4 mph 24.2 mph N/A   Clear
7:16 AM 35.6 °F 25.5 °F 33.8 °F 93% 29.30 in 10.0 mi ESE 17.3 mph 21.9 mph N/A   Partly Cloudy
7:36 AM 35.6 °F 26.2 °F 33.8 °F 93% 29.30 in 10.0 mi ESE 15.0 mph - N/A   Scattered Clouds
7:56 AM 35.6 °F 26.6 °F 33.8 °F 93% 29.30 in 10.0 mi ESE 13.8 mph 19.6 mph N/A   Mostly Cloudy
8:16 AM 37.4 °F 28.5 °F 33.8 °F 87% 29.30 in 10.0 mi ESE 15.0 mph - N/A   Overcast
8:36 AM 37.4 °F 28.9 °F 33.8 °F 87% 29.29 in 10.0 mi ESE 13.8 mph - N/A   Overcast
8:56 AM 35.6 °F 26.2 °F 33.8 °F 93% 29.28 in 10.0 mi ESE 15.0 mph - N/A   Mostly Cloudy
9:16 AM 37.4 °F 28.5 °F 33.8 °F 87% 29.27 in 10.0 mi ESE 15.0 mph 20.7 mph N/A   Scattered Clouds
9:36 AM 37.4 °F 28.5 °F 33.8 °F 87% 29.27 in 10.0 mi ESE 15.0 mph 20.7 mph N/A   Partly Cloudy
9:56 AM 37.4 °F 28.2 °F 33.8 °F 87% 29.27 in 10.0 mi ESE 16.1 mph - N/A   Scattered Clouds
10:16 AM 37.4 °F 29.8 °F 33.8 °F 87% 29.27 in 10.0 mi ESE 11.5 mph - N/A   Partly Cloudy
10:36 AM 35.6 °F 26.2 °F 32.0 °F 87% 29.26 in 10.0 mi ESE 15.0 mph 23.0 mph N/A   Clear
10:56 AM 37.4 °F 28.5 °F 33.8 °F 87% 29.26 in 10.0 mi ESE 15.0 mph - N/A   Clear
11:16 AM 37.4 °F 28.2 °F 33.8 °F 87% 29.26 in 10.0 mi ESE 16.1 mph - N/A   Mostly Cloudy
11:36 AM 35.6 °F 28.0 °F 32.0 °F 87% 29.26 in 10.0 mi East 10.4 mph - N/A   Partly Cloudy
11:56 AM 37.4 °F 30.8 °F 33.8 °F 87% 29.26 in 10.0 mi East 9.2 mph - N/A   Mostly Cloudy
12:16 PM 37.4 °F 30.3 °F 33.8 °F 87% 29.24 in 10.0 mi East 10.4 mph - N/A   Overcast
12:36 PM 37.4 °F 30.3 °F 33.8 °F 87% 29.24 in 10.0 mi East 10.4 mph - N/A   Overcast
12:56 PM 37.4 °F 30.3 °F 33.8 °F 87% 29.23 in 10.0 mi East 10.4 mph 19.6 mph N/A   Overcast
1:16 PM 37.4 °F 29.8 °F 33.8 °F 87% 29.22 in 10.0 mi East 11.5 mph - N/A   Overcast
1:36 PM 37.4 °F 31.4 °F 33.8 °F 87% 29.21 in 10.0 mi East 8.1 mph - N/A   Overcast
1:56 PM 37.4 °F 34.9 °F 33.8 °F 87% 29.21 in 10.0 mi NNE 3.5 mph - N/A   Overcast
2:16 PM 35.6 °F - 32.0 °F 87% 29.20 in 10.0 mi Calm Calm - N/A   Overcast
2:36 PM 37.4 °F 34.9 °F 32.0 °F 81% 29.19 in 10.0 mi NE 3.5 mph - N/A   Overcast
2:56 PM 35.6 °F 32.8 °F 32.0 °F 87% 29.18 in 10.0 mi East 3.5 mph - N/A   Overcast
3:36 PM 37.4 °F 33.8 °F 33.8 °F 87% 29.16 in 10.0 mi ENE 4.6 mph - N/A   Overcast
3:56 PM 37.4 °F 34.9 °F 33.8 °F 87% 29.15 in 10.0 mi East 3.5 mph - N/A   Overcast
4:16 PM 37.4 °F 33.8 °F 33.8 °F 87% 29.14 in 10.0 mi ENE 4.6 mph - N/A   Overcast
4:36 PM 37.4 °F 32.8 °F 33.8 °F 87% 29.14 in 10.0 mi NE 5.8 mph - N/A   Overcast
4:56 PM 37.4 °F 34.9 °F 33.8 °F 87% 29.13 in 10.0 mi NE 3.5 mph - N/A   Overcast
5:16 PM 37.4 °F 32.1 °F 33.8 °F 87% 29.11 in 10.0 mi NNE 6.9 mph - N/A   Overcast
5:36 PM 37.4 °F 30.8 °F 33.8 °F 87% 29.10 in 10.0 mi NE 9.2 mph - N/A   Overcast
5:56 PM 37.4 °F 30.8 °F 33.8 °F 87% 29.10 in 10.0 mi NE 9.2 mph - N/A   Overcast
6:16 PM 37.4 °F 30.8 °F 32.0 °F 81% 29.09 in 10.0 mi ENE 9.2 mph - N/A   Overcast
6:36 PM 37.4 °F 30.8 °F 30.2 °F 75% 29.08 in 10.0 mi NE 9.2 mph - N/A   Scattered Clouds
6:56 PM 37.4 °F 29.8 °F 32.0 °F 81% 29.07 in 10.0 mi ENE 11.5 mph 17.3 mph N/A   Partly Cloudy
7:16 PM 35.6 °F 28.0 °F 32.0 °F 87% 29.07 in 10.0 mi ENE 10.4 mph - N/A   Clear
7:36 PM 35.6 °F 27.5 °F 30.2 °F 81% 29.06 in 10.0 mi ENE 11.5 mph - N/A   Clear
7:56 PM 35.6 °F 28.6 °F 32.0 °F 87% 29.06 in 10.0 mi ENE 9.2 mph - N/A   Clear
8:16 PM 35.6 °F 28.6 °F 32.0 °F 87% 29.06 in 10.0 mi ENE 9.2 mph - N/A   Partly Cloudy
8:36 PM 35.6 °F 29.2 °F 32.0 °F 87% 29.05 in 10.0 mi East 8.1 mph - N/A   Mostly Cloudy
8:56 PM 35.6 °F 28.6 °F 32.0 °F 87% 29.05 in 10.0 mi ENE 9.2 mph - N/A   Overcast
9:16 PM 37.4 °F 30.8 °F 32.0 °F 81% 29.04 in 10.0 mi ENE 9.2 mph - N/A   Overcast
9:36 PM 37.4 °F 32.1 °F 32.0 °F 81% 29.04 in 10.0 mi NE 6.9 mph - N/A   Overcast
9:56 PM 35.6 °F 28.6 °F 30.2 °F 81% 29.04 in 10.0 mi ENE 9.2 mph - N/A   Overcast
10:16 PM 37.4 °F 31.4 °F 32.0 °F 81% 29.03 in 10.0 mi ENE 8.1 mph - N/A   Overcast
10:36 PM 35.6 °F 29.2 °F 30.2 °F 81% 29.03 in 10.0 mi ENE 8.1 mph - N/A   Overcast
10:56 PM 37.4 °F 30.8 °F 32.0 °F 81% 29.03 in 10.0 mi ENE 9.2 mph - N/A   Overcast
11:16 PM 37.4 °F 31.4 °F 30.2 °F 75% 29.03 in 10.0 mi NE 8.1 mph - N/A   Overcast
11:36 PM 37.4 °F 30.8 °F 32.0 °F 81% 29.02 in 10.0 mi NE 9.2 mph - N/A   Overcast
11:56 PM 35.6 °F 27.5 °F 30.2 °F 81% 29.01 in 10.0 mi NNE 11.5 mph - N/A   Overcast